Flag for China Weather past 2 weeks in Guangzhou, Guangdong, China

Now
68 °F

Partly sunny.


Feels Like: 68 °F
Forecast: 59 / 73 °F
Wind: 6 mph from Southeast

Location: Canton Airport

Current Time: Jan 28, 2015 at 1:16:31 PM

Latest Report: Jan 28, 2015 at 12:30 PM


Visibility: 2 mi

Pressure: 30.07 "Hg

Humidity: 69%

Dew point: 57 °F

Location of GuangzhouLocation

Historic Weather in Guangzhou — Graph

°F

Guangzhou temperature yesterday

Maximum temperature yesterday: 75 °F (at 2:30 PM)
Minimum temperature yesterday: 59 °F (at 6:30 AM)
Average temperature yesterday: 66 °F

Past Weeks' High & Low Weather Summary

 TemperatureHumidityPressure
High75 °F (Jan 21, 2:00 PM)100% (Jan 26, 2:30 AM)30.36 "Hg (Jan 26, 2:30 AM)
Low45 °F (Jan 15, 6:00 AM)20% (Jan 22, 2:30 PM)29.95 "Hg (Jan 27, 4:00 PM)
Average61 °F64%30.15 "Hg
* Reported Jan 13 12:00 Noon — Jan 28 12:00 Noon, Guangzhou, Weather by CustomWeather, © 2014

Note: Actual official high and low records may vary slightly from our data, if they occured in-between our weather recording intervals... More about our weather records

Advertising

Guangzhou weather history for previous 24 hours

 ConditionsComfort  
Time TempWeatherWind HumidityBarometerVisibility
12:00 PM
Jan 28
68 °FBroken clouds.3 mph69%30.07 "Hg2 mi
11:30 AM66 °FBroken clouds.6 mph73%30.09 "Hg2 mi
11:00 AM66 °FBroken clouds.6 mph68%30.09 "Hg3 mi
10:30 AM66 °FBroken clouds.6 mph73%30.09 "Hg3 mi
10:00 AM64 °FFog.3 mph78%30.09 "Hg3 mi
9:30 AM64 °FFog.3 mph78%30.09 "Hg3 mi
9:00 AM63 °FFog.6 mph88%30.09 "Hg2 mi
8:30 AM63 °FFog.1 mph83%30.09 "Hg3 mi
8:00 AM63 °FFog.1 mph83%30.07 "Hg2 mi
7:30 AM63 °FFog.1 mph88%30.07 "Hg2 mi
7:00 AM63 °FFog.1 mph88%30.07 "Hg2 mi
6:30 AM63 °FFog.3 mph88%30.07 "Hg2 mi
6:00 AM63 °FFog.3 mph88%30.04 "Hg2 mi
5:30 AM63 °FFog.3 mph88%30.04 "Hg2 mi
5:00 AM63 °FFog.3 mph88%30.04 "Hg2 mi
4:30 AM63 °FFog.3 mph88%30.04 "Hg2 mi
4:00 AM63 °FFog.3 mph88%30.04 "Hg2 mi
3:30 AM63 °FFog.3 mph88%30.04 "Hg2 mi
3:00 AM63 °FFog.3 mph88%30.04 "Hg2 mi
2:30 AM63 °FFog.3 mph88%30.04 "Hg2 mi
2:00 AM64 °FFog.1 mph83%30.04 "Hg2 mi
1:30 AM64 °FFog.No wind88%30.04 "Hg2 mi
1:00 AM63 °FFog.No wind88%30.04 "Hg2 mi
12:30 AM63 °FFog.No wind88%30.04 "Hg2 mi
12:00 AM63 °FFog.1 mph88%30.04 "Hg2 mi
11:30 PM
Jan 27
63 °FFog.1 mph88%30.04 "Hg2 mi
11:00 PM63 °FFog.1 mph88%30.04 "Hg2 mi
10:30 PM63 °FFog.3 mph88%30.04 "Hg2 mi
10:00 PM63 °FFog.3 mph88%30.01 "Hg2 mi
9:30 PM64 °FFog.3 mph83%30.01 "Hg2 mi
9:00 PM64 °FFog.3 mph83%30.01 "Hg2 mi
8:30 PM66 °FHaze.3 mph78%30.01 "Hg3 mi
8:00 PM66 °FHaze.No wind78%30.01 "Hg3 mi
7:30 PM66 °FPassing clouds.No wind78%29.98 "Hg3 mi
7:00 PM70 °FPassing clouds.1 mph69%29.98 "Hg3 mi
6:30 PM70 °FPassing clouds.1 mph69%29.98 "Hg3 mi
6:00 PM70 °FScattered clouds.3 mph69%29.98 "Hg3 mi
5:30 PM72 °FPartly sunny.3 mph65%29.95 "Hg3 mi
5:00 PM72 °FPartly sunny.3 mph65%29.95 "Hg3 mi
4:30 PM72 °FPartly sunny.3 mph61%29.95 "Hg3 mi
4:00 PM73 °FPartly sunny.3 mph57%29.95 "Hg3 mi
3:30 PM73 °FPartly sunny.3 mph61%29.98 "Hg2 mi
3:00 PM73 °FPartly sunny.3 mph61%29.98 "Hg3 mi
2:30 PM75 °FPartly sunny.3 mph57%29.98 "Hg3 mi
2:00 PM73 °FScattered clouds.3 mph61%30.01 "Hg3 mi
1:30 PM72 °FPartly sunny.3 mph65%30.04 "Hg3 mi
1:00 PM72 °FPartly sunny.No wind65%30.04 "Hg3 mi
Weather by CustomWeather, © 2014

See weather overviewHow to use our weather pages